Regional Weather Roundup
Issued by NWS

Home | Current Version | Previous Version | Graphics & Text | Print | Product List | Glossary On
Versions: 1 2 3 4 5 6 7 8 9 10 11 12 13 14 15 16 17 18 19 20 21 22 23 24 25 26 27 28 29 30 31 32 33 34 35 36 37 38 39 40 41 42 43 44 45 46 47 48 49 50
000
ASUS43 KMKX 051100
RWRWI

WISCONSIN REGIONAL WEATHER ROUNDUP
NATIONAL WEATHER SERVICE MILWAUKEE/SULLIVAN WI
600 AM CDT TUE MAY 05 2015

NOTE: "FAIR" INDICATES FEW OR NO CLOUDS BELOW 12,000 FEET WITH NO
SIGNIFICANT WEATHER AND/OR OBSTRUCTIONS TO VISIBILITY.

WIZ001-002-006>008-014>016-023>028-051200-
NORTHWEST WISCONSIN

CITY           SKY/WX    TMP DP  RH WIND       PRES   REMARKS
SUPERIOR ARPT  CLEAR     30  28  94 CALM      30.27S
ASHLAND        CLEAR     33  31  92 W5        30.28R WCI  29
HAYWARD        CLEAR     34  30  85 CALM      30.26S
SIREN          CLEAR     32  27  80 CALM      30.24R
CUMBERLAND     CLEAR     45  32  61 NE5       30.23S
RICE LAKE      CLEAR     49  33  53 E6        30.24S
CHETEK         CLEAR     49  37  61 NE6       30.23S
LADYSMITH      CLEAR     47  35  62 E6        30.27S
EAU CLAIRE     NOT AVBL
MENOMONIE      CLEAR     47  39  72 NE6       30.22S
NEW RICHMOND   CLEAR     48  33  55 E8        30.20S
OSCEOLA        CLEAR     49  34  56 E6        30.23S
$$

WIZ003>005-009-010-017-018-051200-
NORTH CENTRAL WISCONSIN

CITY           SKY/WX    TMP DP  RH WIND       PRES   REMARKS
MANITOWISH WTR CLEAR     32  32  99 CALM      30.28S FOG
ARBOR VITAE    CLEAR     38  35  89 CALM      30.28S
WOODRUFF       CLEAR     38  35  89 CALM      30.28S
RHINELANDER    FAIR      39  36  89 CALM      30.29S
EAGLE RIVER    CLEAR     33  33  99 CALM      30.28S
LAND O LAKES   CLEAR     31  31  99 CALM      30.30S
PHILLIPS       CLEAR     43  33  69 CALM      30.26S
TOMAHAWK       PTCLDY    31  30  94 CALM      30.28S
MEDFORD        PTCLDY    40  35  81 NE6       30.25S
MERRILL        PTCLDY    40  35  85 NE5       30.27R
$$

WIZ029-030-035-036-043>047-051200-
CENTRAL WISCONSIN

CITY           SKY/WX    TMP DP  RH WIND       PRES   REMARKS
WAUSAU         MOCLDY    46  32  58 E8        30.25R
MOSINEE        NOT AVBL
MARSHFIELD     MOCLDY    47  33  58 E8        30.24R
STEVENS POINT  MOCLDY    45  33  62 E7        30.26R
WAUPACA        CLOUDY    50  37  61 CALM      30.27R
WAUTOMA        NOT AVBL
WISC RAPIDS    MOCLDY    50  32  50 E7        30.25R
CAMP DOUGLAS   NOT AVBL
$$

WIZ011>013-019>022-031-037>040-048>050-051200-
NORTHEAST WISCONSIN

CITY           SKY/WX    TMP DP  RH WIND       PRES   REMARKS
ANTIGO         MOCLDY    42  35  77 NE3       30.28S
SHAWANO        CLOUDY    49  37  64 NE9       30.28S
OCONTO         CLOUDY    39  37  89 CALM      30.29R
STURGEON BAY   CLOUDY    45  32  61 E6        30.31R
GREEN BAY      CLOUDY    50  36  58 E7        30.28R
MANITOWOC      NOT AVBL
APPLETON       MOCLDY    50  32  50 E8        30.27R
CLINTONVILLE   CLOUDY    46  34  61 NE7       30.26S
OSHKOSH        CLOUDY    52  37  56 E8        30.26R
$$

WIZ032>034-041-042-053>061-051200-
SOUTHWEST WISCONSIN

CITY           SKY/WX    TMP DP  RH WIND       PRES   REMARKS
LA CROSSE      CLOUDY    57  42  57 SE5       30.19R
SPARTA         CLOUDY    52  38  59 E6        30.21S
VIROQUA        CLOUDY    49  48  95 E14G20    30.18S
BOSCOBEL       LGT RAIN  52  48  86 NE9G17    30.19R
PRAIRIE DU CHI LGT RAIN  52  47  82 E12       30.15R
PLATTEVILLE    CLOUDY    51  49  92 E14       30.16R
$$

WIZ056-057-062-063-064-067-068-051200-
SOUTH CENTRAL WISCONSIN

CITY           SKY/WX    TMP DP  RH WIND       PRES   REMARKS
REEDSBURG      DRIZZLE   48  45  90 E7        30.22S
BARABOO/DELLS  NOT AVBL
LONE ROCK      NOT AVBL
MINERAL POINT  LGT RAIN  52  48  87 E13       30.17S
MADISON        LGT RAIN  50  45  83 E9        30.22S
MIDDLETON      CLOUDY    51  47  88 E9        30.22S
WATERTOWN      DRIZZLE   49  45  86 NE6       30.23S
MONROE         RAIN      50  48  93 NE8G16    30.19R
JANESVILLE     LGT RAIN  50  48  93 E9        30.19F
$$

WIZ051-052-058>065-066-070>072-051200-
SOUTHEAST WISCONSIN

CITY           SKY/WX    TMP DP  RH WIND       PRES   REMARKS
MILWAUKEE      LGT RAIN  44  39  82 NE12      30.24S
WAUKESHA       CLOUDY    46  39  76 NE9       30.25R
MILWAUKEE/TIMM DRIZZLE   46  37  71 NE9       30.26S
RACINE         LGT RAIN  46  41  82 NE6       30.25S
BURLINGTON     LGT RAIN  47  44  89 E5        30.23R
KENOSHA        LGT RAIN  48  44  86 E13       30.23R
FOND DU LAC    CLOUDY    52  35  52 E5        30.25S
SHEBOYGAN      CLOUDY    45  36  70 NE7       30.27S
WEST BEND      LGT RAIN  45  41  87 E6        30.26S
JUNEAU         DRIZZLE   49  39  70 E8        30.26R
$$

LSZ147-162-051200-
LAKE SUPERIOR

STATION/POSITION TIME  TEMP    WIND        PRES    WAVE
                       AIR SEA DIR/SP/G            HT/PER
                 (UTC) (F)     (DEG/KT/KT) (MB)    (FT/S)
W MID LAKE BUOY  0950   40 35   30/  4/  6 1026.0S   0
DEVILS ISLAND    1000   43     120/  6/  7 1025.9R
PORT WING        1040   34     180/  4/  5 1025.1R
SAXON HARBOR     1000   35        CALM     1024.4
$$

LMZ867-665-643>646-051200-
LAKE MICHIGAN

STATION/POSITION TIME  TEMP    WIND        PRES    WAVE
                       AIR SEA DIR/SP/G            HT/PER
                 (UTC) (F)     (DEG/KT/KT) (MB)    (FT/S)
CHAMBERS ISLAND  1040   44      10/  2/  4 1026.1R
NORTHPORT PIER   1000   42     320/  4/  6 1025.7S
KEWAUNEE LAKESHO 1000   46      40/ 11/ 14 1024.0S
SHEBOYGAN LAKESH 1000   44      10/  9/ 10 1025.7R
PORT WASHINGTON  1000   49      30/  5/  7 1025.1S
ATWATER BUOY     1000   45      10/ 12/ 14 1025.5R
MILWAUKEE LAKESH 1000   45      30/ 12/ 14   N/A
KENOSHA   LAKESH 1000   47      30/ 13/ 14 1023.0F
$$

TC  - TEMPERATURE IN CELSIUS
VSB - VISIBILITY IN STATUTE MILES
WCI - WIND CHILL INDEX
HX  - HEAT INDEX




USA.gov is the U.S. government's official web portal to all federal, state and local government web resources and services.